Flag for Montenegro Weather past 2 weeks in Podgorica, Montenegro

Now
82 °F

Partly sunny.


Feels Like: 83 °F
Forecast: 67 / 79 °F
Wind: 1 mph from North

Location: Podgorica Titograd

Current Time: Jul 30, 2014 at 5:44:55 PM

Latest Report: Jul 30, 2014 at 5:00 PM


Visibility: N/A

Pressure: 29.74 "Hg

Humidity: 48%

Dew point: 61 °F

Location of PodgoricaLocation

Historic Weather in Podgorica — Graph

°F

Podgorica temperature yesterday

Maximum temperature yesterday: 86 °F (at 2:00 PM)
Minimum temperature yesterday: 68 °F (at 3:30 AM)
Average temperature yesterday: 77 °F

Past Weeks' High & Low Weather Summary

 TemperatureHumidityPressure
High93 °F (Jul 19, 2:00 PM)100% (Jul 27, 9:00 PM)29.98 "Hg (Jul 27, 9:00 PM)
Low66 °F (Jul 23, 6:00 AM)28% (Jul 19, 2:00 PM)29.68 "Hg (Jul 22, 5:30 PM)
Average79 °F58%29.86 "Hg
* Reported Jul 15 4:00 PM — Jul 30 4:30 PM, Podgorica, Weather by CustomWeather, © 2014

Note: Actual official high and low records may vary slightly from our data, if they occured in-between our weather recording intervals... More about our weather records

Advertising

Podgorica weather history for previous 24 hours

 ConditionsComfort  
Time TempWeatherWind HumidityBarometerVisibility
4:30 PM
Jul 30
82 °FPartly sunny.1 mph45%29.74 "HgN/A
4:00 PM81 °FLight rain. Partly sunny.3 mph58%29.77 "HgN/A
3:30 PM82 °FRain. Partly sunny.10 mph62%29.80 "HgN/A
3:00 PM82 °FScattered clouds.3 mph58%29.77 "HgN/A
2:30 PM82 °FScattered clouds.1 mph55%29.80 "HgN/A
2:00 PM81 °FScattered clouds.5 mph58%29.80 "HgN/A
1:30 PM81 °FScattered clouds.3 mph62%29.80 "HgN/A
1:00 PM81 °FScattered clouds.2 mph58%29.83 "HgN/A
12:30 PM81 °FScattered clouds.2 mph58%29.83 "HgN/A
12:00 PM79 °FScattered clouds.2 mph70%29.83 "HgN/A
11:30 AM77 °FScattered clouds.6 mph74%29.80 "HgN/A
11:00 AM75 °FScattered clouds.8 mph78%29.80 "HgN/A
10:30 AM73 °FScattered clouds.6 mph83%29.80 "HgN/A
10:00 AM77 °FSprinkles. Scattered clouds.8 mph65%29.80 "HgN/A
9:30 AM79 °FScattered clouds.5 mph58%29.80 "HgN/A
9:00 AM79 °FScattered clouds.3 mph61%29.80 "HgN/A
8:30 AM77 °FPassing clouds.5 mph65%29.80 "HgN/A
8:00 AM75 °FPassing clouds.3 mph65%29.80 "HgN/A
7:30 AM73 °FPassing clouds.3 mph69%29.80 "HgN/A
7:00 AM72 °FPassing clouds.3 mph78%29.80 "HgN/A
6:30 AM70 °FPassing clouds.6 mph83%29.80 "HgN/A
6:00 AM68 °FPassing clouds.5 mph88%29.80 "HgN/A
5:30 AM68 °FPassing clouds.2 mph88%29.80 "HgN/A
5:00 AM68 °FClear.3 mph88%29.80 "Hg10 mi
4:30 AM70 °FClear.2 mph83%29.80 "Hg10 mi
4:00 AM70 °FClear.1 mph78%29.80 "Hg10 mi
3:30 AM70 °FClear.1 mph83%29.80 "Hg10 mi
3:00 AM72 °FClear.1 mph78%29.80 "Hg10 mi
2:30 AM72 °FClear.6 mph78%29.83 "Hg10 mi
2:00 AM72 °FClear.3 mph78%29.83 "Hg10 mi
1:30 AM72 °FClear.6 mph78%29.83 "Hg10 mi
1:00 AM72 °FClear.6 mph83%29.83 "Hg10 mi
12:30 AM73 °FClear.5 mph78%29.83 "Hg10 mi
12:00 AM73 °FPassing clouds.5 mph83%29.83 "HgN/A
11:30 PM
Jul 29
75 °FPassing clouds.3 mph74%29.83 "HgN/A
11:00 PM75 °FClear.2 mph74%29.83 "Hg10 mi
10:30 PM75 °FClear.6 mph74%29.83 "Hg10 mi
10:00 PM75 °FClear.1 mph74%29.83 "Hg10 mi
9:30 PM75 °FPassing clouds.3 mph74%29.83 "HgN/A
9:00 PM77 °FPassing clouds.5 mph74%29.83 "HgN/A
8:30 PM79 °FPassing clouds.6 mph74%29.83 "HgN/A
8:00 PM81 °FPassing clouds.3 mph66%29.83 "HgN/A
7:30 PM82 °FPassing clouds.5 mph58%29.83 "HgN/A
7:00 PM84 °FPassing clouds.6 mph51%29.80 "HgN/A
6:30 PM84 °FPassing clouds.5 mph51%29.83 "HgN/A
6:00 PM86 °FPassing clouds.6 mph49%29.83 "HgN/A
5:30 PM84 °FPassing clouds.3 mph55%29.83 "HgN/A
5:00 PM84 °FPassing clouds.3 mph51%29.83 "HgN/A
Weather by CustomWeather, © 2014

See weather overviewHow to use our weather pages